Previsão horária em Cecina

Hoje, 25 Julho, Domingo

Tempo Temperatura Precipitação Vento Pressão Humidade
00:00 +23°C° 0 mm 4 m/s 757 mmHg 65%
01:00 +23°C° 0 mm 4 m/s 756 mmHg 66%
02:00 +23°C° 0 mm 4 m/s 756 mmHg 67%
03:00 +22°C° 0 mm 4 m/s 756 mmHg 69%
04:00 +22°C° 0 mm 4 m/s 756 mmHg 70%
05:00 +23°C° 0 mm 4 m/s 756 mmHg 65%
06:00 +25°C° 0 mm 4 m/s 756 mmHg 60%
07:00 +27°C° 0 mm 5 m/s 756 mmHg 53%
08:00 +29°C° 0 mm 6 m/s 756 mmHg 48%
09:00 +33°C° 0 mm 6 m/s 756 mmHg 42%
10:00 +35°C° 0 mm 7 m/s 756 mmHg 36%
11:00 +35°C° 0 mm 7 m/s 756 mmHg 38%
12:00 +35°C° 0 mm 7 m/s 756 mmHg 40%
13:00 +35°C° 0 mm 8 m/s 756 mmHg 42%
14:00 +35°C° 0 mm 8 m/s 755 mmHg 43%
15:00 +35°C° 0 mm 8 m/s 755 mmHg 43%
16:00 +35°C° 0 mm 8 m/s 755 mmHg 43%
17:00 +33°C° 0 mm 7 m/s 755 mmHg 49%
18:00 +32°C° 0 mm 7 m/s 756 mmHg 55%
19:00 +29°C° 0 mm 6 m/s 756 mmHg 60%
20:00 +28°C° 0 mm 5 m/s 756 mmHg 66%
21:00 +26°C° 0 mm 5 m/s 756 mmHg 71%
22:00 +25°C° 0 mm 5 m/s 756 mmHg 76%
23:00 +25°C° 0 mm 4 m/s 756 mmHg 78%

Amanhã, 26 Julho, Segunda-feira

Tempo Temperatura Precipitação Vento Pressão Humidade
00:00 +23°C° 0 mm 4 m/s 757 mmHg 80%
01:00 +23°C° 0 mm 4 m/s 757 mmHg 83%
02:00 +24°C° 0 mm 3 m/s 757 mmHg 82%
03:00 +24°C° 0 mm 3 m/s 757 mmHg 82%
04:00 +24°C° 0 mm 3 m/s 757 mmHg 81%
05:00 +24°C° 0.1 mm 3 m/s 757 mmHg 81%
06:00 +25°C° 0.1 mm 3 m/s 757 mmHg 81%
07:00 +25°C° 0.1 mm 3 m/s 757 mmHg 80%
08:00 +27°C° 0.2 mm 4 m/s 757 mmHg 74%
09:00 +28°C° 0.2 mm 5 m/s 758 mmHg 67%
10:00 +30°C° 0.2 mm 6 m/s 759 mmHg 61%
11:00 +32°C° 0.1 mm 6 m/s 759 mmHg 54%
12:00 +33°C° 0.1 mm 5 m/s 758 mmHg 47%
13:00 +35°C° 0.1 mm 5 m/s 758 mmHg 40%
14:00 +34°C° 0 mm 6 m/s 758 mmHg 42%
15:00 +34°C° 0 mm 6 m/s 758 mmHg 43%
16:00 +34°C° 0 mm 6 m/s 758 mmHg 45%
17:00 +32°C° 0 mm 5 m/s 759 mmHg 50%
18:00 +30°C° 0 mm 4 m/s 759 mmHg 55%
19:00 +29°C° 0 mm 3 m/s 759 mmHg 60%
20:00 +28°C° 0 mm 3 m/s 759 mmHg 68%
21:00 +26°C° 0 mm 2 m/s 759 mmHg 75%
22:00 +25°C° 0 mm 1 m/s 759 mmHg 83%
23:00 +24°C° 0 mm 2 m/s 760 mmHg 85%

Depois de amanhã, 27 Julho, Terça-feira

Tempo Temperatura Precipitação Vento Pressão Humidade
00:00 +24°C° 0 mm 2 m/s 760 mmHg 87%
01:00 +23°C° 0 mm 2 m/s 760 mmHg 90%
02:00 +23°C° 0 mm 2 m/s 760 mmHg 91%
03:00 +23°C° 0 mm 2 m/s 760 mmHg 92%
04:00 +23°C° 0 mm 2 m/s 760 mmHg 94%
05:00 +24°C° 0 mm 2 m/s 761 mmHg 89%
06:00 +25°C° 0 mm 2 m/s 761 mmHg 83%
07:00 +26°C° 0 mm 1 m/s 761 mmHg 78%
08:00 +29°C° 0 mm 2 m/s 761 mmHg 67%
09:00 +31°C° 0 mm 2 m/s 761 mmHg 55%
10:00 +34°C° 0 mm 3 m/s 761 mmHg 43%
11:00 +35°C° 0 mm 4 m/s 761 mmHg 42%
12:00 +35°C° 0 mm 4 m/s 761 mmHg 41%
13:00 +36°C° 0 mm 5 m/s 761 mmHg 39%
14:00 +36°C° 0 mm 5 m/s 761 mmHg 39%
15:00 +36°C° 0 mm 5 m/s 760 mmHg 38%
16:00 +36°C° 0 mm 4 m/s 760 mmHg 37%
17:00 +34°C° 0 mm 4 m/s 760 mmHg 41%
18:00 +33°C° 0 mm 4 m/s 760 mmHg 45%
19:00 +30°C° 0 mm 3 m/s 759 mmHg 48%
20:00 +28°C° 0 mm 3 m/s 760 mmHg 55%
21:00 +26°C° 0 mm 3 m/s 760 mmHg 61%
22:00 +25°C° 0 mm 3 m/s 760 mmHg 68%
23:00 +24°C° 0 mm 3 m/s 760 mmHg 69%

28 Julho, Quarta-feira

Tempo Temperatura Precipitação Vento Pressão Humidade
00:00 +24°C° 0 mm 3 m/s 760 mmHg 70%
01:00 +22°C° 0 mm 3 m/s 760 mmHg 71%
02:00 +22°C° 0 mm 3 m/s 760 mmHg 72%
03:00 +22°C° 0 mm 3 m/s 760 mmHg 72%
04:00 +23°C° 0 mm 2 m/s 759 mmHg 73%
05:00 +24°C° 0 mm 2 m/s 760 mmHg 67%
06:00 +26°C° 0 mm 2 m/s 760 mmHg 61%
07:00 +27°C° 0 mm 2 m/s 760 mmHg 54%
08:00 +29°C° 0 mm 3 m/s 760 mmHg 50%
09:00 +31°C° 0 mm 3 m/s 760 mmHg 46%
10:00 +35°C° 0 mm 4 m/s 760 mmHg 41%
11:00 +35°C° 0 mm 4 m/s 760 mmHg 39%
12:00 +36°C° 0 mm 5 m/s 759 mmHg 36%
13:00 +37°C° 0 mm 5 m/s 759 mmHg 34%
14:00 +37°C° 0 mm 5 m/s 759 mmHg 35%
15:00 +37°C° 0 mm 5 m/s 759 mmHg 36%
16:00 +36°C° 0 mm 4 m/s 759 mmHg 37%
17:00 +34°C° 0 mm 4 m/s 759 mmHg 44%
18:00 +33°C° 0 mm 3 m/s 759 mmHg 50%
19:00 +30°C° 0 mm 3 m/s 759 mmHg 57%
20:00 +28°C° 0 mm 2 m/s 759 mmHg 64%
21:00 +26°C° 0 mm 2 m/s 759 mmHg 71%
22:00 +24°C° 0 mm 2 m/s 759 mmHg 78%
23:00 +24°C° 0 mm 2 m/s 759 mmHg 77%

29 Julho, Quinta-feira

Tempo Temperatura Precipitação Vento Pressão Humidade
00:00 +24°C° 0 mm 2 m/s 759 mmHg 76%
01:00 +24°C° 0 mm 2 m/s 759 mmHg 75%
02:00 +23°C° 0 mm 2 m/s 759 mmHg 73%
03:00 +23°C° 0 mm 2 m/s 759 mmHg 71%
04:00 +23°C° 0 mm 2 m/s 759 mmHg 70%
05:00 +25°C° 0 mm 2 m/s 759 mmHg 62%
06:00 +26°C° 0 mm 2 m/s 759 mmHg 55%
07:00 +28°C° 0 mm 2 m/s 759 mmHg 48%
08:00 +30°C° 0 mm 2 m/s 759 mmHg 42%
09:00 +34°C° 0 mm 2 m/s 759 mmHg 36%
10:00 +37°C° 0 mm 2 m/s 759 mmHg 30%
11:00 +37°C° 0 mm 2 m/s 759 mmHg 30%
12:00 +38°C° 0 mm 3 m/s 759 mmHg 29%
13:00 +39°C° 0 mm 3 m/s 759 mmHg 28%
14:00 +39°C° 0 mm 3 m/s 759 mmHg 29%
15:00 +38°C° 0 mm 4 m/s 758 mmHg 31%
16:00 +38°C° 0 mm 4 m/s 758 mmHg 32%
17:00 +36°C° 0 mm 3 m/s 758 mmHg 40%
18:00 +33°C° 0 mm 3 m/s 758 mmHg 49%
19:00 +30°C° 0 mm 3 m/s 758 mmHg 57%
20:00 +28°C° 0 mm 3 m/s 758 mmHg 63%
21:00 +26°C° 0 mm 3 m/s 758 mmHg 70%
22:00 +25°C° 0 mm 2 m/s 758 mmHg 76%
23:00 +24°C° 0 mm 2 m/s 758 mmHg 74%

30 Julho, Sexta-feira

Tempo Temperatura Precipitação Vento Pressão Humidade
00:00 +24°C° 0 mm 2 m/s 758 mmHg 73%
01:00 +24°C° 0 mm 2 m/s 758 mmHg 71%
02:00 +23°C° 0 mm 2 m/s 757 mmHg 69%
03:00 +23°C° 0 mm 2 m/s 757 mmHg 67%
04:00 +23°C° 0 mm 2 m/s 757 mmHg 65%
05:00 +25°C° 0 mm 1 m/s 757 mmHg 58%
06:00 +26°C° 0 mm 1 m/s 757 mmHg 52%
07:00 +28°C° 0 mm 1 m/s 757 mmHg 45%
08:00 +31°C° 0 mm 1 m/s 757 mmHg 40%
09:00 +34°C° 0 mm 2 m/s 757 mmHg 35%
10:00 +37°C° 0 mm 2 m/s 757 mmHg 30%
11:00 +37°C° 0 mm 3 m/s 757 mmHg 30%
12:00 +38°C° 0 mm 3 m/s 757 mmHg 30%
13:00 +40°C° 0 mm 4 m/s 757 mmHg 29%
14:00 +38°C° 0 mm 4 m/s 756 mmHg 30%
15:00 +37°C° 0 mm 3 m/s 756 mmHg 32%
16:00 +37°C° 0 mm 3 m/s 756 mmHg 33%
17:00 +35°C° 0 mm 3 m/s 756 mmHg 39%
18:00 +32°C° 0 mm 2 m/s 756 mmHg 45%
19:00 +30°C° 0 mm 2 m/s 756 mmHg 52%
20:00 +28°C° 0 mm 2 m/s 756 mmHg 59%
21:00 +26°C° 0 mm 2 m/s 757 mmHg 67%
22:00 +24°C° 0 mm 2 m/s 757 mmHg 74%
23:00 +24°C° 0 mm 2 m/s 757 mmHg 78%
Mostrar mais

Necessitamos do seu Consentimento

A Meteoprog e os seus Fornecedores de Serviços podem armazenar e aceder a dados pessoais como cookies, identificadores do dispositivo ou outras tecnologias semelhantes existentes no seu dispositivo e processar estes dados para personalizar conteúdos e anúncios, assim como funcionalidades nas redes sociais e análise de tráfego.

  • Armazenar e/ou aceder a informações no seu dispositivo

    Os cookies, identificadores do dispositivo ou outras informações podem ser armazenados ou acedidos no seu dispositivo, para os fins acima indicados.

  • Anúncios e conteúdos personalizados, medição de anúncios e conteúdos, dados sobre o público-alvo e desenvolvimento de produtos

    Os anúncios e os conteúdos podem ser personalizados com base num perfil. Podem ser adicionados dados adicionais para uma maior personalização dos anúncios e dos conteúdos. A eficácia dos anúncios e dos conteúdos pode ser medida. Podem ser obtidas informações sobre o público que visualizou os anúncios e os conteúdos. Estes dados podem ser usados para desenvolver ou melhorar sistemas, softwares ou a experiência do utilizador.

Ao clicar em "Eu concordo”, permitirá o uso de cookies, identificadores do dispositivo e web beacons mencionados ou outras tecnologias semelhantes. As configurações do navegador do seu dispositivo podem ser alteradas.

Para certos fins, podem ser invocados interesses legítimos ao invés de consentimento. Pode ler mais informação sobre este assunto na nossa Política de Privacidade e Cookies.